Change the Weather History Date:

Thursday, June 6, 2013

  Actual Average Record
Temperature  
Mean Temperature 62 °F 69 °F  
Max Temperature 67 °F 80 °F 99 °F (1933)
Min Temperature 56 °F 58 °F 44 °F (1894)
Degree Days  
Heating Degree Days 3 1  
Month to date heating degree days 25 9  
Since 1 June heating degree days 25 9  
Since 1 July heating degree days 6333 6193  
Cooling Degree Days 0 5  
Month to date cooling degree days 5 27  
Year to date cooling degree days 95 103  
Since 1 June cooling degree days 5 27  
Growing Degree Days 10 (Base 50)    
Moisture  
Dew Point 56 °F    
Average Humidity 81    
Maximum Humidity 93    
Minimum Humidity 68    
Precipitation  
Precipitation 0.58 in 0.16 in 2.66 in (1908)
Month to date precipitation 0.67 0.91  
Year to date precipitation 23.82 14.77  
Snow  
Snow 0.00 in 0.00 in - ()
Month to date snowfall 0.0 0.0  
Since 1 June snowfall 0.0 0.0  
Since 1 July snowfall 34.5 31.6  
Snow Depth 0.00 in    
Sea Level Pressure  
Sea Level Pressure 29.90 in    
Wind  
Wind Speed 4 mph (NE)    
Max Wind Speed 10 mph    
Max Gust Speed -    
Visibility 6 miles    
Events Rain    
T = Trace of Precipitation, MM = Missing Value Source: NWS Daily Summary

Daily Weather History Graph

Daily Weather History Graph

Search for Another Location

Airport or City:

Trip Planner

Search our weather history database for the weather conditions in past years. The results will help you decide how hot, cold, wet, or windy it might be!

Date:

Astronomy

Jun. 06, 2013 Rise Set
Actual Time 5:28 AM CDT 8:33 PM CDT
Civil Twilight 4:55 AM CDT 9:06 PM CDT
Nautical Twilight 4:12 AM CDT 9:49 PM CDT
Astronomical Twilight 3:22 AM CDT 10:40 PM CDT
Moon 4:11 AM CDT (6/6) 6:53 PM CDT (6/6)
Length of Visible Light 16h 11m
Length of Day
15h 04m
Waning Crescent, 3% of the Moon is Illuminated
Jun 6
Waning Crescent
Jun 8
New
Jun 16
First Quarter
Jun 23
Full
Jun 29
Last Quarter

Hourly Weather History & Observations

Time (CDT) Temp. Dew Point Humidity Pressure Visibility Wind Dir Wind Speed Gust Speed Precip Events Conditions
12:52 AM 57.9 °F 55.0 °F 90% 29.91 in 7.0 mi East 6.9 mph - N/A   Overcast
1:52 AM 57.0 °F 55.0 °F 93% 29.91 in 2.5 mi Calm Calm - 0.07 in Rain Heavy Rain
2:04 AM 57.2 °F 55.4 °F 94% 29.90 in 4.0 mi NE 3.5 mph - 0.03 in Rain Rain
2:52 AM 57.0 °F 55.0 °F 93% 29.89 in 5.0 mi Calm Calm - 0.07 in Rain Light Rain
3:38 AM 57.2 °F 55.4 °F 94% 29.88 in 6.0 mi Calm Calm - 0.02 in Rain Light Rain
3:52 AM 57.0 °F 55.0 °F 93% 29.88 in 4.0 mi North 3.5 mph - 0.03 in Rain Light Rain
4:15 AM 55.4 °F 53.6 °F 94% 29.88 in 2.0 mi Calm Calm - 0.06 in Rain Heavy Rain
4:41 AM 57.2 °F 55.4 °F 94% 29.88 in 3.0 mi Calm Calm - 0.16 in Rain Rain
4:52 AM 57.0 °F 55.0 °F 93% 29.89 in 3.0 mi Calm Calm - 0.18 in Rain Rain
4:56 AM 57.2 °F 55.4 °F 94% 29.89 in 2.5 mi Calm Calm - 0.01 in Rain Rain
5:12 AM 57.2 °F 53.6 °F 88% 29.89 in 4.0 mi Calm Calm - 0.05 in Rain Light Rain
5:27 AM 55.4 °F 53.6 °F 94% 29.88 in 4.0 mi East 6.9 mph - 0.07 in Rain Rain
5:38 AM 55.4 °F 55.4 °F 100% 29.87 in 2.0 mi East 5.8 mph - 0.16 in Rain Heavy Rain
5:44 AM 55.4 °F 55.4 °F 100% 29.88 in 3.0 mi ENE 3.5 mph - 0.18 in Rain Light Rain
5:52 AM 55.9 °F 54.0 °F 93% 29.88 in 6.0 mi ENE 5.8 mph - 0.18 in Rain Light Rain
6:44 AM 55.4 °F 53.6 °F 94% 29.89 in 5.0 mi Calm Calm - 0.05 in   Overcast
6:52 AM 57.0 °F 54.0 °F 89% 29.89 in 5.0 mi Calm Calm - 0.05 in   Overcast
7:52 AM 57.0 °F 55.0 °F 93% 29.90 in 5.0 mi Calm Calm - N/A   Overcast
7:59 AM 57.2 °F 55.4 °F 94% 29.90 in 5.0 mi Calm Calm - N/A   Overcast
8:21 AM 57.2 °F 55.4 °F 94% 29.89 in 5.0 mi Calm Calm - N/A   Overcast
8:52 AM 57.9 °F 55.0 °F 90% 29.90 in - East 4.6 mph - N/A   Unknown
9:25 AM 59.0 °F 55.4 °F 88% 29.91 in 4.0 mi Calm Calm - N/A   Overcast
9:41 AM 59.0 °F 55.4 °F 88% 29.90 in 2.5 mi Calm Calm - N/A   Overcast
9:52 AM 59.0 °F 55.9 °F 90% 29.90 in 2.0 mi ENE 3.5 mph - N/A   Overcast
10:10 AM 57.2 °F 55.4 °F 94% 29.91 in 1.2 mi East 4.6 mph - N/A   Overcast
10:24 AM 57.2 °F 55.4 °F 94% 29.90 in 1.0 mi NE 3.5 mph - N/A   Overcast
10:39 AM 59.0 °F 57.2 °F 94% 29.90 in 2.0 mi NNE 3.5 mph - 0.00 in   Overcast
10:50 AM 59.0 °F 57.2 °F 94% 29.90 in 3.0 mi NNE 3.5 mph - 0.00 in   Overcast
10:52 AM 59.0 °F 55.9 °F 90% 29.90 in 4.0 mi NNE 3.5 mph - 0.00 in   Overcast
11:13 AM 60.8 °F 57.2 °F 88% 29.89 in 6.0 mi NE 3.5 mph - N/A   Overcast
11:52 AM 61.0 °F 55.9 °F 83% 29.89 in 6.0 mi Variable 3.5 mph - N/A   Haze
12:19 PM 60.8 °F 55.4 °F 82% 29.90 in 7.0 mi Calm Calm - N/A   Overcast
12:52 PM 63.0 °F 57.0 °F 81% 29.90 in 6.0 mi NNE 3.5 mph - N/A   Haze
1:18 PM 64.4 °F 57.2 °F 77% 29.90 in 7.0 mi Calm Calm - N/A   Overcast
1:26 PM 64.4 °F 57.2 °F 77% 29.90 in 6.0 mi Variable 3.5 mph - N/A   Haze
1:52 PM 64.0 °F 57.0 °F 78% 29.90 in 7.0 mi Variable 4.6 mph - N/A   Overcast
2:52 PM 64.9 °F 57.0 °F 75% 29.89 in 7.0 mi ENE 3.5 mph - N/A   Overcast
3:52 PM 66.0 °F 57.0 °F 73% 29.88 in 8.0 mi North 3.5 mph - N/A   Overcast
4:52 PM 66.0 °F 57.0 °F 73% 29.89 in 9.0 mi NW 5.8 mph - N/A   Overcast
5:39 PM 66.2 °F 55.4 °F 68% 29.89 in 9.0 mi North 4.6 mph - N/A   Overcast
5:52 PM 66.0 °F 55.9 °F 70% 29.89 in 10.0 mi NNE 3.5 mph - N/A   Overcast
6:52 PM 64.9 °F 55.9 °F 73% 29.88 in 10.0 mi NNE 5.8 mph - N/A   Overcast
7:52 PM 64.0 °F 57.0 °F 78% 29.89 in 9.0 mi North 9.2 mph - N/A   Overcast
8:52 PM 62.1 °F 55.9 °F 80% 29.90 in 10.0 mi NNE 6.9 mph - N/A   Mostly Cloudy
9:52 PM 62.1 °F 55.9 °F 80% 29.92 in 10.0 mi ENE 9.2 mph - N/A   Overcast
10:13 PM 60.8 °F 55.4 °F 82% 29.93 in 10.0 mi ENE 8.1 mph - N/A   Overcast
10:52 PM 60.1 °F 55.0 °F 83% 29.93 in 8.0 mi NE 6.9 mph - N/A   Overcast
11:03 PM 62.6 °F 55.4 °F 77% 29.93 in 8.0 mi ENE 5.8 mph - N/A   Overcast
11:32 PM 60.8 °F 55.4 °F 82% 29.93 in 7.0 mi NE 5.8 mph - N/A   Overcast
11:52 PM 60.1 °F 55.0 °F 83% 29.93 in 7.0 mi NE 8.1 mph - N/A   Overcast